[[{"header":{"parameterUnit":"m.s-1","parameterCategory":1,"la1":30.2992,"la2":30.254,"lo1":-89.0895,"lo2":-89.0443,"dy":0.0025,"dx":0.0025,"nx":19,"ny":19,"refTime":"2026-05-15T03:00:00:Z","depth":0,"parameterNumber":2,"parameterNumberName":"U-component_of_WINDS"},"data":[0,0,0,-3.3994,-3.3994,-3.3991,-3.3991,-3.401,-3.401,0,0,0,0,0,0,0,0,0,0,0,-3.4007,-3.4008,-3.3994,-3.3994,-3.3991,-3.3991,-3.401,-3.401,0,0,0,0,0,0,0,0,0,0,0,-3.4007,-3.4008,-3.4008,-3.3994,-3.3992,-3.3991,-3.401,-3.4004,0,0,0,0,0,0,0,0,0,0,-3.4002,-3.4028,-3.4008,-3.4008,-3.3994,-3.3992,-3.3991,-3.4003,-3.4004,-3.4021,0,-3.4039,0,-3.4025,-3.4013,-3.4013,0,0,0,-3.3984,-3.4027,-3.4015,-3.4009,-3.3994,-3.3992,-3.399,-3.4004,-3.4005,-3.4022,-3.4039,-3.4039,-3.4025,-3.4013,-3.4014,-3.4143,-3.4144,0,0,-3.3984,-3.4013,-3.4014,-3.4016,-3.4018,-3.399,-3.399,-3.4004,-3.4024,-3.4039,-3.4039,-3.4026,-3.4014,-3.4014,-3.4142,-3.4143,0,0,0,-3.3991,-3.4014,-3.4001,-3.4016,-3.4014,-3.399,-3.399,-3.4023,-3.4016,-3.4039,-3.4026,-3.4014,-3.4014,-3.4141,-3.4142,-3.4223,0,0,0,-3.3991,-3.4018,-3.4002,-3.402,-3.4014,-3.4018,-3.4009,-3.4015,-3.4016,-3.4026,-3.4014,-3.4015,-3.4139,-3.4141,-3.4219,-3.4256,0,0,0,-3.4003,-3.4019,-3.4024,-3.4021,-3.4022,-3.4017,-3.4011,-3.4015,-3.4009,-3.4013,-3.4015,-3.4138,-3.4141,-3.4214,-3.4248,-3.4298,0,0,0,-3.4024,-3.4095,-3.4026,-3.41,-3.4022,-3.4069,-3.4011,-3.4044,-3.4058,-3.4014,-3.4139,-3.4142,-3.4213,-3.4244,-3.4294,-3.4343,-3.4367,0,0,-3.413,-3.4109,-3.415,-3.4088,-3.4155,-3.4067,-3.4146,-3.413,-3.4103,-3.4131,-3.4134,-3.422,-3.4248,-3.4297,-3.4496,-3.4516,0,0,0,-3.4194,-3.4224,-3.4235,-3.425,-3.4242,-3.4237,-3.4206,-3.4201,-3.4224,-3.4124,-3.4252,-3.4267,-3.4295,-3.4317,-3.4333,-3.4355,-3.4154,-3.4154,-3.4154,-3.4382,-3.4347,-3.4413,-3.4378,-3.4394,-3.4364,-3.4374,-3.4361,-3.4318,-3.435,-3.4357,-3.4482,-3.451,-3.4522,-3.4545,-3.4382,-3.4383,-3.4383,-3.4383,-3.4532,-3.4568,-3.4515,-3.4559,-3.4522,-3.4559,-3.4534,-3.4504,-3.4533,-3.4473,-3.4496,-3.4431,-3.4544,-3.4562,-3.4389,-3.4388,-3.4387,-3.4387,-3.4386,-3.4649,-3.4661,-3.4655,-3.4676,-3.4696,-3.4659,-3.4691,-3.4655,-3.4622,-3.4645,-3.4648,-3.4646,-3.4639,-3.4649,-3.465,-3.465,-3.4651,-3.4651,-3.4651,-3.4772,-3.4763,-3.4794,-3.4794,-3.4801,-3.4806,-3.478,-3.4785,-3.4782,-3.4754,-3.4754,-3.4708,-3.4563,-3.4526,-3.4658,-3.4657,-3.4656,-3.4655,-3.4655,-3.4932,-3.4891,-3.4939,-3.4947,-3.4945,-3.4968,-3.4925,-3.494,-3.494,-3.4957,-3.4909,-3.4808,-3.4783,-3.4769,-3.4738,-3.4917,-3.4917,-3.4917,-3.4917,-3.5029,-3.5015,-3.5057,-3.5071,-3.5082,-3.5048,-3.5105,-3.5087,-3.5062,-3.506,-3.503,-3.4987,-3.4975,-3.4957,-3.4939,-3.4909,-3.5128,-3.5128,-3.5128,-3.5126,-3.5111,-3.5165,-3.5141,-3.5139,-3.5137,-3.5189,-3.5208,-3.5171,-3.5136,-3.5057,-3.5048,-3.4979,-3.4958,-3.4916,-3.489,-3.4835,0,0]},{"header":{"parameterUnit":"m.s-1","parameterCategory":1,"la1":30.2992,"la2":30.254,"lo1":-89.0895,"lo2":-89.0443,"dy":0.0025,"dx":0.0025,"nx":19,"ny":19,"refTime":"2026-05-15T03:00:00:Z","depth":0,"parameterNumber":3,"parameterNumberName":"V-component_of_WINDS"},"data":[0,0,0,3.2469,3.247,3.2524,3.2524,3.2579,3.258,0,0,0,0,0,0,0,0,0,0,0,3.2447,3.2447,3.2469,3.247,3.2524,3.2525,3.2579,3.258,0,0,0,0,0,0,0,0,0,0,0,3.2447,3.2447,3.2447,3.2471,3.2524,3.2525,3.2579,3.2543,0,0,0,0,0,0,0,0,0,0,3.2493,3.2466,3.2447,3.2447,3.2471,3.2524,3.2525,3.2542,3.2545,3.255,0,3.2554,0,3.2568,3.2583,3.2583,0,0,0,3.2475,3.2463,3.2484,3.2447,3.2471,3.2524,3.2501,3.2544,3.2548,3.2555,3.2554,3.2557,3.2569,3.2583,3.2583,3.2599,3.2598,0,0,3.2472,3.2452,3.2481,3.2486,3.2479,3.2499,3.2503,3.2547,3.2544,3.2555,3.2558,3.2569,3.2583,3.2584,3.2599,3.2598,0,0,0,3.246,3.245,3.247,3.2484,3.2495,3.2501,3.2505,3.2542,3.2551,3.2559,3.257,3.2584,3.2584,3.2599,3.2599,3.2574,0,0,0,3.2459,3.2444,3.2469,3.2457,3.2494,3.252,3.2499,3.2548,3.2553,3.257,3.2584,3.2585,3.2599,3.2599,3.2575,3.2565,0,0,0,3.2445,3.2442,3.2448,3.2456,3.2479,3.2519,3.253,3.2549,3.256,3.2583,3.2585,3.2599,3.2599,3.2576,3.2567,3.2564,0,0,0,3.2425,3.2424,3.2447,3.245,3.2478,3.2505,3.253,3.255,3.2567,3.2584,3.2599,3.2599,3.2576,3.2568,3.2565,3.2558,3.2553,0,0,3.2413,3.2422,3.2426,3.2448,3.2465,3.2498,3.2511,3.2544,3.2563,3.2585,3.2586,3.2575,3.2567,3.2564,3.2535,3.2531,0,0,0,3.2415,3.2418,3.2426,3.2443,3.2469,3.2491,3.2524,3.2536,3.2556,3.2571,3.2574,3.257,3.2569,3.2566,3.2563,3.2563,3.2597,3.2597,3.2597,3.237,3.2396,3.2403,3.2435,3.2451,3.2486,3.25,3.2522,3.2542,3.2542,3.2549,3.2528,3.2525,3.2522,3.2522,3.2547,3.2547,3.2547,3.2547,3.2355,3.2362,3.239,3.2408,3.2434,3.2448,3.2481,3.2495,3.2511,3.2525,3.2526,3.2539,3.2518,3.2519,3.2546,3.2546,3.2546,3.2546,3.2546,3.2328,3.2336,3.2352,3.2379,3.2396,3.2428,3.2442,3.2466,3.2487,3.2488,3.2497,3.2497,3.25,3.249,3.249,3.249,3.249,3.249,3.249,3.2294,3.2313,3.2323,3.2352,3.2365,3.2386,3.2421,3.2434,3.2455,3.247,3.2471,3.249,3.2511,3.2516,3.2489,3.2489,3.249,3.249,3.249,3.2268,3.2278,3.2294,3.2308,3.2343,3.2358,3.2388,3.2413,3.2428,3.2434,3.2453,3.2466,3.2476,3.2478,3.2482,3.2449,3.2449,3.2449,3.2449,3.2245,3.2253,3.2275,3.2296,3.2318,3.2347,3.2362,3.2389,3.2418,3.2428,3.2436,3.2444,3.2445,3.2454,3.2458,3.2462,3.2423,3.2423,3.2423,3.2231,3.2242,3.2252,3.2282,3.2311,3.2335,3.235,3.2371,3.2405,3.2423,3.2436,3.2437,3.2449,3.2452,3.2469,3.2473,3.2481,0,0]}]]